IZ2WMD-13 Weather Reports


time (UTC)temp
F
wind
direction
speed
knots
gust
knots
rain 1hr
in
rain 24hr
in
rain mn
in
humidity
%
barometer
mb
20260902170203 82 0.0 0.0 0.00 0.00 0.00 51 1015.8
20260902163202 84 0.0 0.0 0.00 0.00 0.00 47 1015.8
20260902160201 86 0.0 0.0 0.00 0.00 0.00 40 1015.7
20260902153159 88 0.0 0.0 0.00 0.00 0.00 37 1015.8
20260902150158 89 0.0 0.0 0.00 0.00 0.00 36 1015.9
20260902143156 90 0.0 0.0 0.00 0.00 0.00 38 1016.2
20260902140155 92 0.0 0.0 0.00 0.00 0.00 38 1016.4
20260902133154 91 0.0 0.0 0.00 0.00 0.00 39 1016.8
20260902130151 90 0.0 0.0 0.00 0.00 0.00 39 1017.1
20260902123150 90 0.0 0.0 0.00 0.00 0.00 40 1017.6
20260902120149 88 0.0 0.0 0.00 0.00 0.00 43 1017.9
20260902113148 90 0.0 0.0 0.00 0.00 0.00 40 1018.1
20260902110146 89 0.0 0.0 0.00 0.00 0.00 40 1018.3
20260902103145 87 0.0 0.0 0.00 0.00 0.00 42 1018.9
20260902100144 87 0.0 0.0 0.00 0.00 0.00 38 1019.2
20260902093142 85 0.0 0.0 0.00 0.00 0.00 40 1019.4
20260902090141 83 0.0 0.0 0.00 0.00 0.00 42 1019.4
20260902083140 80 0.0 0.0 0.00 0.00 0.00 50 1019.7
20260902080139 77 0.0 0.0 0.00 0.00 0.00 55 1019.8
20260902073137 78 0.0 0.0 0.00 0.00 0.00 55 1019.5
20260902070136 75 0.0 0.0 0.00 0.00 0.00 61 1019.4
20260902063135 72 0.0 0.0 0.00 0.00 0.00 69 1019.6
20260902060134 70 0.0 0.0 0.00 0.00 0.00 65 1019.7
20260902053132 67 0.0 0.0 0.00 0.00 0.00 85 1019.7
20260902050131 66 0.0 0.0 0.00 0.00 0.00 86 1019.5
20260902043130 66 0.0 0.0 0.00 0.00 0.00 86 1019.3
20260902040128 66 0.0 0.0 0.00 0.00 0.00 84 1019.0
20260902033127 67 0.0 0.0 0.00 0.00 0.00 85 1019.1
20260902030126 67 0.0 0.0 0.00 0.00 0.00 81 1019.0
20260902023125 67 0.0 0.0 0.00 0.00 0.00 84 1019.0
20260902020123 68 0.0 0.0 0.00 0.00 0.00 83 1018.8
20260902013122 69 0.0 0.0 0.00 0.00 0.00 80 1018.9
20260902010120 69 0.0 0.0 0.00 0.00 0.00 81 1018.9
20260902003119 70 0.0 0.0 0.00 0.00 0.00 76 1018.8
20260902000118 70 0.0 0.0 0.00 0.00 0.00 69 1018.8
20260901233117 70 0.0 0.0 0.00 0.00 0.00 67 1018.8
20260901230115 70 0.0 0.0 0.00 0.00 0.00 72 1018.9
20260901223114 71 0.0 0.0 0.00 0.00 0.00 72 1018.7
20260901220113 71 0.0 0.0 0.00 0.00 0.00 70 1018.7
20260901213111 72 0.0 0.0 0.00 0.00 0.00 72 1018.7
20260901210110 72 0.0 0.0 0.00 0.00 0.00 72 1018.6
20260901203109 73 0.0 0.0 0.00 0.00 0.00 63 1018.5
20260901200107 73 0.0 0.0 0.00 0.00 0.00 76 1018.3
20260901193106 73 0.0 0.0 0.00 0.00 0.00 76 1018.0
20260901190105 74 0.0 0.0 0.00 0.00 0.00 74 1017.7
20260901183103 75 0.0 0.0 0.00 0.00 0.00 71 1017.3
20260901173101 80 0.0 0.0 0.00 0.00 0.00 60 1016.6